Hourly Weather Bolshie Matveevichi

Today, 20 June, Sunday

Time Temperature Precipitation Wind Pressure Humidity
00:00 +19°C° 0 mm 2 mps 750 mmHg 88%
01:00 +19°C° 0 mm 2 mps 750 mmHg 89%
02:00 +20°C° 0 mm 1 mps 751 mmHg 89%
03:00 +19°C° 0 mm 2 mps 750 mmHg 90%
04:00 +19°C° 0 mm 2 mps 750 mmHg 90%
05:00 +19°C° 0 mm 2 mps 750 mmHg 91%
06:00 +20°C° 0 mm 3 mps 750 mmHg 87%
07:00 +22°C° 0 mm 3 mps 750 mmHg 83%
08:00 +25°C° 0 mm 4 mps 750 mmHg 79%
09:00 +26°C° 0 mm 4 mps 750 mmHg 74%
10:00 +27°C° 0 mm 5 mps 750 mmHg 69%
11:00 +28°C° 0 mm 5 mps 750 mmHg 64%
12:00 +28°C° 0 mm 5 mps 750 mmHg 63%
13:00 +29°C° 0 mm 5 mps 749 mmHg 61%
14:00 +29°C° 0 mm 5 mps 749 mmHg 60%
15:00 +29°C° 0 mm 4 mps 749 mmHg 61%
16:00 +29°C° 0 mm 4 mps 749 mmHg 62%
17:00 +29°C° 0 mm 3 mps 748 mmHg 64%
18:00 +28°C° 0.1 mm 3 mps 748 mmHg 70%
19:00 +26°C° 0.1 mm 3 mps 748 mmHg 76%
20:00 +25°C° 0.1 mm 3 mps 748 mmHg 82%
21:00 +24°C° 0 mm 3 mps 748 mmHg 83%
22:00 +22°C° 0 mm 3 mps 748 mmHg 84%
23:00 +21°C° 0 mm 4 mps 748 mmHg 85%

Tomorrow, 21 June, Monday

Time Temperature Precipitation Wind Pressure Humidity
00:00 +20°C° 0 mm 3 mps 748 mmHg 88%
01:00 +19°C° 0 mm 3 mps 748 mmHg 91%
02:00 +19°C° 0 mm 3 mps 748 mmHg 93%
03:00 +18°C° 0 mm 3 mps 748 mmHg 94%
04:00 +18°C° 0 mm 3 mps 747 mmHg 95%
05:00 +18°C° 0 mm 3 mps 747 mmHg 95%
06:00 +20°C° 0 mm 3 mps 747 mmHg 90%
07:00 +22°C° 0 mm 4 mps 747 mmHg 84%
08:00 +23°C° 0 mm 4 mps 747 mmHg 79%
09:00 +25°C° 0 mm 4 mps 747 mmHg 74%
10:00 +26°C° 0 mm 4 mps 747 mmHg 69%
11:00 +27°C° 0 mm 5 mps 747 mmHg 64%
12:00 +28°C° 0.3 mm 5 mps 747 mmHg 64%
13:00 +28°C° 0.3 mm 5 mps 747 mmHg 64%
14:00 +28°C° 0.3 mm 4 mps 746 mmHg 65%
15:00 +28°C° 0.5 mm 4 mps 746 mmHg 67%
16:00 +28°C° 0.5 mm 4 mps 746 mmHg 69%
17:00 +28°C° 0.5 mm 4 mps 746 mmHg 70%
18:00 +27°C° 0.4 mm 3 mps 746 mmHg 74%
19:00 +26°C° 0.4 mm 3 mps 746 mmHg 78%
20:00 +25°C° 0.4 mm 2 mps 745 mmHg 82%
21:00 +24°C° 0 mm 2 mps 745 mmHg 84%
22:00 +23°C° 0 mm 2 mps 745 mmHg 87%
23:00 +21°C° 0 mm 2 mps 746 mmHg 89%

Day after tomorrow, 22 June, Tuesday

Time Temperature Precipitation Wind Pressure Humidity
00:00 +20°C° 0 mm 2 mps 746 mmHg 91%
01:00 +20°C° 0 mm 2 mps 746 mmHg 92%
02:00 +20°C° 0 mm 2 mps 746 mmHg 93%
03:00 +20°C° 0 mm 2 mps 746 mmHg 93%
04:00 +19°C° 0 mm 2 mps 746 mmHg 94%
05:00 +19°C° 0 mm 2 mps 746 mmHg 94%
06:00 +21°C° 0 mm 3 mps 746 mmHg 89%
07:00 +22°C° 0 mm 3 mps 746 mmHg 84%
08:00 +25°C° 0 mm 3 mps 746 mmHg 79%
09:00 +26°C° 0 mm 4 mps 747 mmHg 73%
10:00 +27°C° 0 mm 4 mps 747 mmHg 68%
11:00 +29°C° 0 mm 5 mps 747 mmHg 62%
12:00 +29°C° 0 mm 4 mps 747 mmHg 59%
13:00 +30°C° 0 mm 4 mps 747 mmHg 56%
14:00 +32°C° 0 mm 4 mps 747 mmHg 53%
15:00 +31°C° 0 mm 3 mps 747 mmHg 55%
16:00 +31°C° 0 mm 3 mps 746 mmHg 56%
17:00 +31°C° 0 mm 2 mps 746 mmHg 58%
18:00 +30°C° 0 mm 2 mps 746 mmHg 63%
19:00 +28°C° 0 mm 1 mps 746 mmHg 68%
20:00 +27°C° 0 mm 1 mps 746 mmHg 73%
21:00 +26°C° 0 mm 1 mps 747 mmHg 76%
22:00 +25°C° 0 mm 1 mps 747 mmHg 78%
23:00 +24°C° 0 mm 1 mps 747 mmHg 80%

23 June, Wednesday

Time Temperature Precipitation Wind Pressure Humidity
00:00 +23°C° 0 mm 1 mps 747 mmHg 81%
01:00 +23°C° 0 mm 1 mps 747 mmHg 82%
02:00 +23°C° 0 mm 1 mps 747 mmHg 83%
03:00 +23°C° 0.2 mm 1 mps 747 mmHg 85%
04:00 +22°C° 0.2 mm 1 mps 747 mmHg 86%
05:00 +21°C° 0.2 mm 2 mps 748 mmHg 87%
06:00 +24°C° 0.1 mm 2 mps 748 mmHg 84%
07:00 +25°C° 0.1 mm 2 mps 748 mmHg 80%
08:00 +27°C° 0.1 mm 3 mps 749 mmHg 76%
09:00 +28°C° 0 mm 2 mps 749 mmHg 71%
10:00 +29°C° 0 mm 2 mps 749 mmHg 67%
11:00 +30°C° 0 mm 2 mps 749 mmHg 62%
12:00 +31°C° 0 mm 2 mps 749 mmHg 59%
13:00 +31°C° 0 mm 2 mps 749 mmHg 56%
14:00 +32°C° 0 mm 2 mps 749 mmHg 53%
15:00 +32°C° 0 mm 2 mps 749 mmHg 54%
16:00 +32°C° 0 mm 2 mps 749 mmHg 55%
17:00 +32°C° 0 mm 2 mps 748 mmHg 56%
18:00 +30°C° 0.1 mm 2 mps 748 mmHg 62%
19:00 +29°C° 0.1 mm 1 mps 749 mmHg 69%
20:00 +28°C° 0.1 mm 1 mps 749 mmHg 75%
21:00 +26°C° 0.7 mm 2 mps 749 mmHg 80%
22:00 +24°C° 0.7 mm 2 mps 749 mmHg 85%
23:00 +21°C° 0.7 mm 3 mps 749 mmHg 90%

24 June, Thursday

Time Temperature Precipitation Wind Pressure Humidity
00:00 +21°C° 0.2 mm 2 mps 749 mmHg 90%
01:00 +21°C° 0.2 mm 2 mps 749 mmHg 90%
02:00 +21°C° 0.2 mm 2 mps 749 mmHg 89%
03:00 +22°C° 0.1 mm 1 mps 749 mmHg 89%
04:00 +22°C° 0.1 mm 1 mps 749 mmHg 89%
05:00 +23°C° 0.1 mm 1 mps 749 mmHg 89%
06:00 +24°C° 0.2 mm 1 mps 749 mmHg 87%
07:00 +25°C° 0.2 mm 1 mps 749 mmHg 84%
08:00 +26°C° 0.2 mm 1 mps 749 mmHg 81%
09:00 +27°C° 0 mm 1 mps 749 mmHg 76%
10:00 +28°C° 0 mm 1 mps 749 mmHg 72%
11:00 +30°C° 0 mm 1 mps 749 mmHg 67%
12:00 +30°C° 0.1 mm 1 mps 749 mmHg 65%
13:00 +31°C° 0.1 mm 1 mps 748 mmHg 63%
14:00 +31°C° 0.1 mm 1 mps 748 mmHg 62%
15:00 +31°C° 0.1 mm 1 mps 748 mmHg 62%
16:00 +31°C° 0.1 mm 1 mps 748 mmHg 62%
17:00 +31°C° 0.1 mm 2 mps 748 mmHg 63%
18:00 +30°C° 0.3 mm 2 mps 747 mmHg 69%
19:00 +29°C° 0.3 mm 1 mps 747 mmHg 75%
20:00 +27°C° 0.3 mm 1 mps 746 mmHg 80%
21:00 +25°C° 1.5 mm 2 mps 746 mmHg 84%
22:00 +24°C° 1.5 mm 3 mps 747 mmHg 88%
23:00 +21°C° 1.5 mm 4 mps 747 mmHg 92%

25 June, Friday

Time Temperature Precipitation Wind Pressure Humidity
00:00 +21°C° 1 mm 3 mps 746 mmHg 93%
01:00 +20°C° 1 mm 2 mps 746 mmHg 94%
02:00 +21°C° 1 mm 1 mps 745 mmHg 96%
03:00 +21°C° 0.6 mm 1 mps 745 mmHg 96%
04:00 +21°C° 0.6 mm 1 mps 745 mmHg 96%
05:00 +21°C° 0.6 mm 1 mps 745 mmHg 96%
06:00 +22°C° 0.2 mm 1 mps 745 mmHg 93%
07:00 +23°C° 0.2 mm 1 mps 745 mmHg 90%
08:00 +24°C° 0.2 mm 2 mps 745 mmHg 86%
09:00 +26°C° 0 mm 2 mps 745 mmHg 80%
10:00 +27°C° 0 mm 2 mps 745 mmHg 73%
11:00 +29°C° 0 mm 1 mps 745 mmHg 67%
12:00 +30°C° 0 mm 2 mps 745 mmHg 64%
13:00 +30°C° 0 mm 3 mps 744 mmHg 61%
14:00 +31°C° 0 mm 3 mps 744 mmHg 58%
15:00 +32°C° 0.6 mm 4 mps 744 mmHg 61%
16:00 +30°C° 0.6 mm 4 mps 743 mmHg 65%
17:00 +30°C° 0.6 mm 5 mps 743 mmHg 69%
18:00 +28°C° 1.6 mm 4 mps 743 mmHg 75%
19:00 +26°C° 1.6 mm 3 mps 743 mmHg 81%
20:00 +24°C° 1.6 mm 2 mps 744 mmHg 88%
21:00 +23°C° 0.1 mm 2 mps 744 mmHg 90%
22:00 +21°C° 0.1 mm 2 mps 744 mmHg 93%
23:00 +20°C° 0.1 mm 2 mps 744 mmHg 95%
Show more